RS-40 (38735 NORAD) Tracking and Keplerian Element Data

This shows tracking and keplerian element data for the satellite.

Feedback or suggestion? Click here.




ElementValue
Catalog38735
NameRS-40
Epoch Orbit46757
Epoch Day321.87940936
Epoch Year2022
RAAN169.8535
Inclination82.4767
Eccentricity0.0017942
Argument of Perigee37.6584
Mean Anonmoly322.574
Mean Motion12.4258894
Decay Rate2.3E-07
L11 38735U 12041C 22321.87940936 .00000023 00000-0 97582-4 0 9990
L22 38735 82.4767 169.8535 0017942 37.6584 322.5740 12.42588940467570



Live tracking and technical data element details for RS-40 (NORAD 38735). RS-40 can be tracked NOW for your location showing map with azimuth and elevation plus other details from your city location.







IsCatalogInMostPopularTable: catalog: 38735, numindb: 326
Update: records affected: 1



GetName: 38735 RS-40

Hit Count: updated at: Fri, 02 Dec 2022 13:51:20 GMT